Regional Weather Roundup
Issued by NWS

Home | Current Version | Previous Version | Graphics & Text | Print | Product List | Glossary On
Versions: 1 2 3 4 5 6 7 8 9 10 11 12 13 14 15 16 17 18 19 20 21 22 23 24 25 26 27 28 29 30 31 32 33 34 35 36 37 38 39 40 41 42 43 44 45 46 47 48 49 50
000
ASUS43 KLOT 211912
RWRIL

ILLINOIS REGIONAL WEATHER ROUNDUP
NATIONAL WEATHER SERVICE CHICAGO/ROMEOVILLE IL
100 PM CST TUE FEB 21 2017

NOTE: "FAIR" INDICATES FEW OR NO CLOUDS BELOW 12,000 FEET WITH NO
SIGNIFICANT WEATHER AND/OR OBSTRUCTIONS TO VISIBILITY.

* THESE STATIONS ARE NOT UNDER NWS QUALITY CONTROL. THEY ALSO MAY NOT
  REPORT WEATHER SUCH AS PRECIPITATION OR FOG.

ILZ001-002-007-009-015-016-024-212000-
NORTHWEST ILLINOIS

CITY           SKY/WX    TMP DP  RH WIND       PRES   REMARKS
MOLINE         MOSUNNY   65  44  46 CALM      29.91F
STERLING*      PTSUNNY   62  47  57 VRB3      29.93F
SAVANNA*       SUNNY     59  44  56 W3        29.92F
$$

ILZ003-004-008-010-011-017-018-212000-
NORTH CENTRAL ILLINOIS

CITY           SKY/WX    TMP DP  RH WIND       PRES   REMARKS
ROCKFORD       PTSUNNY   62  47  57 S3        29.93F
FREEPORT*      MOSUNNY   58  45  61 NW3       29.94F
ROCHELLE*      CLOUDY    59  50  71 CALM      29.92F
DE KALB*       CLOUDY    61  50  67 SW5       29.92F
PERU*          CLOUDY    59  55  85 SW9       29.93F
$$

ILZ005-006-012>014-019>023-212000-
NORTHEAST ILLINOIS

CITY           SKY/WX    TMP DP  RH WIND       PRES   REMARKS
CHICAGO-OHARE  CLOUDY    62  54  74 SW9       29.91F
CHICAGO-MIDWAY CLOUDY    64  55  72 W8        29.92F
AURORA         CLOUDY    63  55  75 SW9       29.92F
LANSING*       CLOUDY    63  57  81 S6        29.92F
JOLIET*        CLOUDY    64  58  79 W3        29.92F
WAUKEGAN       MOSUNNY   62  48  60 SW8       29.90F
DUPAGE AIRPORT CLOUDY    62  53  72 W7        29.91F
KANKAKEE*      MOSUNNY   64  56  78 CALM      29.94S
WHEELING       MOSUNNY   64  51  62 W8        29.92F
MORRIS*        CLOUDY    63  56  77 CALM      29.91F
ROMEOVILLE*    CLOUDY    62  59  90 W8        29.92F
NORTHERLY ISL    N/A     61  53  75 SW8         N/A
$$

LMZ740>746-212000-
SOUTHERN LAKE MICHIGAN

STATION/POSITION SKY/WX   TEMP    WIND        PRES    VSBY  WAVE
                          AIR SEA DIR/SP/G                  HT/PER
                          (F)     (DEG/KT/KT) (MB)    (MI)  (FT/S)
HARRISON CRIB              60     250/  9/ 12   N/A
BURNHAM HARBOR             61     250/  5/ 10   N/A
CALUMET HARBOR             62     200/  7/ 11 1012.5F
BURNS HARBOR               61     220/ 10/ 12 1014.2F
MICHIGAN CITY              53     250/  7/  8   N/A
$$

ILZ025>027-034>036-040-047-049-050-058-095>099-212000-
WEST-CENTRAL ILLINOIS

CITY           SKY/WX    TMP DP  RH WIND       PRES   REMARKS
QUINCY         CLOUDY    62  57  83 NW7       29.93F
GALESBURG*     MOSUNNY   64  55  74 S5        29.93F
MACOMB*        CLOUDY    60  57  89 CALM      29.96F
JACKSONVILLE*  CLOUDY    65  56  73 E5        29.93F
PITTSFIELD*    CLOUDY    64  58  82 E5        29.94F
$$

ILZ028>032-037-038-041>044-048-051>054-059>061-212000-
CENTRAL ILLINOIS

CITY           SKY/WX    TMP DP  RH WIND       PRES   REMARKS
PONTIAC        PTSUNNY   66  60  81 S3        29.94F
BLOOMINGTON    PTSUNNY   63  55  75 VRB3      29.95F
DECATUR        CLOUDY    60  54  80 CALM      29.93F
PEORIA         PTSUNNY   64  58  80 VRB3      29.92F
LACON*         PTSUNNY   61  57  85 W6        29.93F
LINCOLN*       CLOUDY    64  58  81 CALM      29.94S
SPRINGFIELD    CLOUDY    62  58  86 NE5       29.93F
TAYLORVILLE    CLOUDY    58  56  90 N3        29.92F
$$

ILZ033-039-045-046-055>057-062-063-212000-
EAST-CENTRAL ILLINOIS

CITY           SKY/WX    TMP DP  RH WIND       PRES   REMARKS
CHAMPAIGN      CLOUDY    60  53  77 CALM      29.94F
RANTOUL*       CLOUDY    61  58  90 S3        29.95R
MATTOON        CLOUDY    59  56  89 SE6       29.91F
PARIS*         CLOUDY    60  55  82 SE5       29.93F
$$

ILZ079-100>102-212000-
SOUTHWEST ILLINOIS

CITY           SKY/WX    TMP DP  RH WIND       PRES   REMARKS
ALTON          CLOUDY    61  57  88 VRB5      29.93F
BELLEVILLE     CLOUDY    64  59  81 E5        29.90F
CAHOKIA*       CLOUDY    65  56  72 N3        29.92S
SPARTA*        DRIZZLE   59  54  83 SE12      29.90F
$$

ILZ064>066-069>071-074>076-080>082-084>086-088>090-092>094-212000-
SOUTH-CENTRAL ILLINOIS

CITY           SKY/WX    TMP DP  RH WIND       PRES   REMARKS
CARBONDALE     CLOUDY    61  52  72 E3        29.90F
CAIRO*         CLOUDY    62  55  75 E5        29.91R
EFFINGHAM*     CLOUDY    60  56  86 E6        29.94F
MARION         CLOUDY    63  55  77 E6        29.92F
MT. VERNON     LGT RAIN  59  53  80 E5        29.92F
CENTRALIA*     LGT RAIN  59  55  88 SE10      29.89F
SALEM*         LGT RAIN  60  54  80 SE3       29.91F
METROPOLIS*    CLOUDY    62  54  74 CALM      29.92F
$$

ILZ067-068-072-073-078-083-087-091-212000-
SOUTHEAST ILLINOIS

CITY           SKY/WX    TMP DP  RH WIND       PRES   REMARKS
LAWRENCEVILLE  LGT RAIN  61  54  77 CALM      29.94F
FLORA*         LGT RAIN  58  55  89 SE6       29.92F
FAIRFIELD*     LGT RAIN  61  55  79 CALM      29.91F
HARRISBURG*    CLOUDY    61  54  77 CALM      29.94R
ROBINSON*      LGT RAIN  59  52  78 SE3       29.94F
CARMI*         CLOUDY    63  54  72 E5        29.92F
$$

ABBREVIATIONS USED IN REMARKS
   TC - TEMPERATURE IN CELSIUS
  WCI - WIND CHILL INDEX
   HX - HEAT INDEX
  VSB - VISIBILITY
$$





USA.gov is the U.S. government's official web portal to all federal, state and local government web resources and services.